Location: Devore Heights
(34.2372°N, 117.4156°W)
Time: 03:55:55
(UTC+00:00)

S-56A Canister/Altair - Pass Details

Date: 20 September 2024
Orbit: 636 x 2487 km, 38.9° (Epoch: 05 October)

Event Time Altitude Azimuth Distance (km) Brightness Sun altitude
Rises 01:01:34 0° 253° (WSW) 2,935 12.5 9.1°
Reaches altitude 10° 01:03:41 10° 254° (WSW) 2,076 12.1 8.7°
Maximum altitude 01:08:20 80° 342° (NNW) 775 7.8 7.7°
Drops below altitude 10° 01:14:29 10° 70° (ENE) 2,725 9.8 6.4°
Sets 01:17:38 0° 71° (ENE) 3,945 10.5 5.8°
